Regional Weather Roundup
Issued by NWS Albany, NY

Home | Current Version | Previous Version | Text Only | Print | Product List | Glossary On
Versions: 1 2 3 4 5 6 7 8 9 10 11 12 13 14 15 16 17 18 19 20 21 22 23 24 25 26 27 28 29 30 31 32 33 34 35 36 37 38 39 40 41 42 43 44 45 46 47 48 49 50
000
ASUS41 KALY 041310
RWRALY

NEW YORK STATE HOURLY WEATHER ROUNDUP
NATIONAL WEATHER SERVICE ALBANY NY
900 AM EDT SAT JUL 04 2015

NOTE: "FAIR" INDICATES FEW OR NO CLOUDS BELOW 12,000 FEET WITH NO
SIGNIFICANT WEATHER AND/OR NO OBSTRUCTIONS TO VISIBILITY.

NYZ032-033-038>043-046>054-057>066-NYZ062>081-041400-
EAST


CITY           SKY/WX    TMP DP  RH WIND       PRES   REMARKS
ALBANY         CLOUDY    63  56  78 CALM      29.97S
GLENS FALLS    CLOUDY    62  56  80 CALM      29.98R
POUGHKEEPSIE   CLOUDY    67  60  78 CALM      29.96R
MONTGOMERY     LGT RAIN  64  61  90 CALM      29.98R FOG
WHITE PLAINS   CLOUDY    67  63  87 E5        29.96S
ISLIP          CLOUDY    69  61  75 E6        29.94S
NEW YORK CITY  CLOUDY    70  62  76 NE8       29.94S
CENTRAL PARK   CLOUDY    71  60  68 NE6       29.97S
$$

NYZ005>009-017-018-044>046-055-056-041400-
CENTRAL


CITY           SKY/WX    TMP DP  RH WIND       PRES   REMARKS
FULTON         CLOUDY    66  59  78 VRB3      29.93R
SYRACUSE       LGT RAIN  64  62  93 CALM      29.93S
ROME           CLOUDY    63  56  78 S3        29.97R
ELMIRA         LGT RAIN  64  63  96 SE3       29.96R FOG
BINGHAMTON     LGT RAIN  61  60  97 S6        29.99S FOG
MONTICELLO     CLOUDY    61  59  94 CALM      30.03R
$$

NYZ026>034-041>043-041400-
NORTH


CITY           SKY/WX    TMP DP  RH WIND       PRES   REMARKS
WATERTOWN      CLOUDY    61  58  90 CALM      29.93R
FORT DRUM      NOT AVBL
MASSENA        PTSUNNY   61  54  77 CALM      29.95S
SARANAC LAKE   CLOUDY    58  50  75 CALM      29.97S
PLATTSBURGH    CLOUDY    62  54  74 CALM      29.96R
$$

NYZ001>004-010>016-019>021-041400-
WEST


CITY           SKY/WX    TMP DP  RH WIND       PRES   REMARKS
NIAGARA FALLS  MOSUNNY   65  49  56 NE7       29.94R
BUFFALO        MOSUNNY   65  51  60 N7        29.94R
DUNKIRK        SUNNY     65  59  81 N8        29.94R
JAMESTOWN      SUNNY     66  61  82 CALM      29.96R
WELLSVILLE     PTSUNNY   64  60  87 SE9       29.99R
ROCHESTER      CLOUDY    65  56  72 CALM      29.94R
PENN YAN       CLOUDY    66  61  84 SW6       29.96R
$$

             KEY
       WCI = WIND CHILL INDEX
       VSB = VISIBILITY
       HX  = HEAT INDEX
$$



USA.gov is the U.S. government's official web portal to all federal, state and local government web resources and services.